ROMMA est une association bénévole à but non lucratif. Votre soutien est indispensable : ADHERER à ROMMA ou FAIRE un DON

Pinsot - (38, Isère)

Vallée du Haut Bréda (750 m)   Longitude: 06° 06' E   Latitude: 45° 21' N Station partenaire n°101
 

Détail journalier du     <<     >>

Température Humidité Pression Vent Dir Rafale Dir. rafale Ensol.
Heure (°C) (%) (hPa) (km/h) (km/h) (min)
01:00 -2.5959972NE8N0
02:00 -2.4959982NE8NE0
03:00 -2.3949995NE15ENE0
04:00 -2.29310008NE16NNE0
05:00 -2.49310007NE16N0
06:00 -2.69210016ENE15NE0
07:00 -2.79210026ENE13E0
08:00 -2.89110028ENE15NE0
09:00 -2.99310037ENE15E0
10:00 -3.19310044NE13ENE0
11:00 -3.09210056ENE15E0
12:00 -2.79110054N15N0
13:00 -2.49010061NNE15NNE0
14:00 -2.29010064N16NNO0
15:00 -1.98910062NNE11N0
16:00 -1.88910075NNE16NE0
17:00 -2.19010082N15N0
18:00 -2.490100808NNE0
19:00 -2.589100908N0
20:00 -2.889100905N0
21:00 -3.18810101N15N0
22:00 -3.3891011013N0
23:00 -3.68910112NNO18NNE0
minuit -3.78910111N11NNE0

Graphique du 24-01-2019

 

Serveur OMMA